Time,TemperatureF,DewpointF,PressureIn,WindDirection,WindDirectionDegrees,WindSpeedMPH,WindSpeedGustMPH,Humidity,HourlyPrecipIn,Conditions,Clouds,dailyrainin,SoftwareType,DateUTC
2013-06-03 00:01:00,62.7,62.1,29.83,NW,314,0.0,0.0,98,0.00,,,0.68,Wunderground v.1.15,2013-06-03 04:01:00,
2013-06-03 00:02:00,62.7,62.1,29.83,NW,314,0.0,0.0,98,0.00,,,0.68,Wunderground v.1.15,2013-06-03 04:02:00,
2013-06-03 00:03:00,62.7,62.1,29.83,NW,314,0.0,0.0,98,0.00,,,0.00,Wunderground v.1.15,2013-06-03 04:03:00,
2013-06-03 00:05:00,62.7,62.1,29.83,NW,314,0.0,0.0,98,0.00,,,0.00,Wunderground v.1.15,2013-06-03 04:05:00,
2013-06-03 00:09:00,62.7,62.1,29.83,NW,314,0.0,0.0,98,0.00,,,0.00,Wunderground v.1.15,2013-06-03 04:09:00,
2013-06-03 00:15:00,62.6,62.0,29.83,NW,314,0.0,0.0,98,0.00,,,0.00,Wunderground v.1.15,2013-06-03 04:15:00,
2013-06-03 00:21:00,62.4,61.8,29.83,NW,314,0.0,0.0,98,0.00,,,0.00,Wunderground v.1.15,2013-06-03 04:21:00,
2013-06-03 00:27:00,62.3,61.7,29.83,NW,314,0.0,0.0,98,0.00,,,0.00,Wunderground v.1.15,2013-06-03 04:27:00,
2013-06-03 00:32:00,62.3,61.7,29.83,NW,314,0.0,0.0,98,0.00,,,0.00,Wunderground v.1.15,2013-06-03 04:32:00,
2013-06-03 00:37:00,62.2,61.6,29.83,NW,314,0.0,0.0,98,0.00,,,0.00,Wunderground v.1.15,2013-06-03 04:37:00,
2013-06-03 00:43:00,62.2,61.6,29.83,NW,314,0.0,0.0,98,0.00,,,0.00,Wunderground v.1.15,2013-06-03 04:43:00,
2013-06-03 00:49:00,62.0,61.4,29.83,NW,314,0.0,0.0,98,0.00,,,0.00,Wunderground v.1.15,2013-06-03 04:49:00,
2013-06-03 00:54:00,61.9,61.3,29.83,NW,314,0.0,0.0,98,0.00,,,0.00,Wunderground v.1.15,2013-06-03 04:54:00,
2013-06-03 00:59:00,61.9,61.3,29.83,NW,314,0.0,0.0,98,0.00,,,0.00,Wunderground v.1.15,2013-06-03 04:59:00,
2013-06-03 01:05:00,61.9,61.3,29.83,NW,314,0.0,0.0,98,0.00,,,0.00,Wunderground v.1.15,2013-06-03 05:05:00,
2013-06-03 01:10:00,61.8,61.2,29.83,NW,314,0.0,0.0,98,0.00,,,0.00,Wunderground v.1.15,2013-06-03 05:10:00,
2013-06-03 01:15:00,61.9,61.3,29.83,NW,314,0.0,0.0,98,0.00,,,0.00,Wunderground v.1.15,2013-06-03 05:15:00,
2013-06-03 01:21:00,61.9,61.3,29.83,NW,314,0.0,0.0,98,0.00,,,0.00,Wunderground v.1.15,2013-06-03 05:21:00,
2013-06-03 01:26:00,61.9,61.3,29.83,NW,314,0.0,0.0,98,0.00,,,0.00,Wunderground v.1.15,2013-06-03 05:26:00,
2013-06-03 01:32:00,62.0,61.4,29.83,NW,314,0.0,0.0,98,0.00,,,0.00,Wunderground v.1.15,2013-06-03 05:32:00,
2013-06-03 01:38:00,62.0,61.4,29.83,NW,314,0.0,0.0,98,0.00,,,0.00,Wunderground v.1.15,2013-06-03 05:38:00,
2013-06-03 01:43:00,62.0,61.4,29.83,NW,314,0.0,0.0,98,0.00,,,0.00,Wunderground v.1.15,2013-06-03 05:43:00,
2013-06-03 01:48:00,62.0,61.4,29.84,NW,314,0.0,0.0,98,0.00,,,0.00,Wunderground v.1.15,2013-06-03 05:48:00,
2013-06-03 01:54:00,62.1,61.5,29.84,NW,314,0.0,0.0,98,0.00,,,0.00,Wunderground v.1.15,2013-06-03 05:54:00,
2013-06-03 01:59:00,62.0,61.4,29.84,NW,314,0.0,0.0,98,0.00,,,0.00,Wunderground v.1.15,2013-06-03 05:59:00,
2013-06-03 02:05:00,62.0,61.4,29.84,NW,314,0.0,0.0,98,0.00,,,0.00,Wunderground v.1.15,2013-06-03 06:05:00,
2013-06-03 02:10:00,62.0,61.4,29.84,NW,314,0.0,0.0,98,0.00,,,0.00,Wunderground v.1.15,2013-06-03 06:10:00,
2013-06-03 02:17:00,62.0,61.4,29.83,NW,314,0.0,0.0,98,0.00,,,0.00,Wunderground v.1.15,2013-06-03 06:17:00,
2013-06-03 02:23:00,62.0,61.4,29.83,NW,314,0.0,0.0,98,0.00,,,0.00,Wunderground v.1.15,2013-06-03 06:23:00,
2013-06-03 02:29:00,62.1,61.5,29.83,NW,314,0.0,0.0,98,0.00,,,0.00,Wunderground v.1.15,2013-06-03 06:29:00,
2013-06-03 02:34:00,62.1,61.5,29.83,NW,314,0.0,0.0,98,0.00,,,0.00,Wunderground v.1.15,2013-06-03 06:34:00,
2013-06-03 02:39:00,62.1,61.5,29.83,NW,314,0.0,0.0,98,0.00,,,0.00,Wunderground v.1.15,2013-06-03 06:39:00,
2013-06-03 02:45:00,62.1,61.5,29.83,NW,314,0.0,0.0,98,0.00,,,0.00,Wunderground v.1.15,2013-06-03 06:45:00,
2013-06-03 02:50:00,62.1,61.5,29.83,NW,314,0.0,0.0,98,0.00,,,0.00,Wunderground v.1.15,2013-06-03 06:50:00,
2013-06-03 02:56:00,62.1,61.5,29.83,NW,314,0.0,0.0,98,0.00,,,0.00,Wunderground v.1.15,2013-06-03 06:56:00,
2013-06-03 03:02:00,62.2,61.6,29.83,NW,314,0.0,0.0,98,0.00,,,0.00,Wunderground v.1.15,2013-06-03 07:02:00,
2013-06-03 03:08:00,62.2,61.6,29.83,NW,314,0.0,0.0,98,0.00,,,0.00,Wunderground v.1.15,2013-06-03 07:08:00,
2013-06-03 03:14:00,62.2,61.6,29.83,NW,314,0.0,0.0,98,0.00,,,0.00,Wunderground v.1.15,2013-06-03 07:14:00,
2013-06-03 03:20:00,62.2,61.9,29.82,NW,314,0.0,0.0,99,0.00,,,0.00,Wunderground v.1.15,2013-06-03 07:20:00,
2013-06-03 03:26:00,62.1,61.5,29.82,NW,314,0.0,0.0,98,0.00,,,0.00,Wunderground v.1.15,2013-06-03 07:26:00,
2013-06-03 03:31:00,62.0,61.7,29.82,NW,314,0.0,0.0,99,0.00,,,0.00,Wunderground v.1.15,2013-06-03 07:31:00,
2013-06-03 03:37:00,62.1,61.8,29.82,NW,314,0.0,0.0,99,0.00,,,0.00,Wunderground v.1.15,2013-06-03 07:37:00,
2013-06-03 03:42:00,62.1,61.8,29.82,NW,314,0.0,0.0,99,0.00,,,0.00,Wunderground v.1.15,2013-06-03 07:42:00,
2013-06-03 03:48:00,62.1,61.8,29.81,NW,314,0.0,0.0,99,0.00,,,0.00,Wunderground v.1.15,2013-06-03 07:48:00,
2013-06-03 03:53:00,62.1,61.8,29.81,NW,314,0.0,0.0,99,0.00,,,0.00,Wunderground v.1.15,2013-06-03 07:53:00,
2013-06-03 03:59:00,62.1,61.8,29.81,NW,314,0.0,0.0,99,0.00,,,0.00,Wunderground v.1.15,2013-06-03 07:59:00,
2013-06-03 04:04:00,62.1,61.8,29.80,NW,314,0.0,0.0,99,0.00,,,0.00,Wunderground v.1.15,2013-06-03 08:04:00,
2013-06-03 04:10:00,62.2,61.9,29.80,NW,314,0.0,0.0,99,0.00,,,0.00,Wunderground v.1.15,2013-06-03 08:10:00,
2013-06-03 04:16:00,62.2,61.9,29.80,NW,314,0.0,0.0,99,0.00,,,0.00,Wunderground v.1.15,2013-06-03 08:16:00,
2013-06-03 04:21:00,62.2,61.9,29.80,NW,314,0.0,0.0,99,0.00,,,0.00,Wunderground v.1.15,2013-06-03 08:21:00,
2013-06-03 04:27:00,62.3,62.0,29.80,NW,314,0.0,0.0,99,0.00,,,0.00,Wunderground v.1.15,2013-06-03 08:27:00,
2013-06-03 04:33:00,62.4,62.1,29.80,NW,314,0.0,0.0,99,0.00,,,0.00,Wunderground v.1.15,2013-06-03 08:33:00,
2013-06-03 04:39:00,62.4,62.1,29.80,NW,314,0.0,0.0,99,0.00,,,0.00,Wunderground v.1.15,2013-06-03 08:39:00,
2013-06-03 04:45:00,62.7,62.4,29.80,NW,314,0.0,0.0,99,0.00,,,0.00,Wunderground v.1.15,2013-06-03 08:45:00,
2013-06-03 04:50:00,62.8,62.5,29.80,NW,314,0.0,0.0,99,0.00,,,0.00,Wunderground v.1.15,2013-06-03 08:50:00,
2013-06-03 04:56:00,62.9,62.6,29.80,NW,314,0.0,0.0,99,0.00,,,0.00,Wunderground v.1.15,2013-06-03 08:56:00,
2013-06-03 05:02:00,63.0,62.7,29.80,NW,314,0.0,0.0,99,0.00,,,0.00,Wunderground v.1.15,2013-06-03 09:02:00,
2013-06-03 05:07:00,63.1,62.8,29.80,NW,314,0.0,0.0,99,0.00,,,0.00,Wunderground v.1.15,2013-06-03 09:07:00,
2013-06-03 05:13:00,63.1,62.8,29.80,NW,311,0.0,0.0,99,0.00,,,0.00,Wunderground v.1.15,2013-06-03 09:13:00,
2013-06-03 05:19:00,63.0,62.7,29.80,NW,311,0.0,0.0,99,0.00,,,0.00,Wunderground v.1.15,2013-06-03 09:19:00,
2013-06-03 05:24:00,63.0,62.7,29.80,NW,310,0.0,0.0,99,0.00,,,0.00,Wunderground v.1.15,2013-06-03 09:24:00,
2013-06-03 05:30:00,62.8,62.5,29.80,NW,311,0.0,0.0,99,0.00,,,0.00,Wunderground v.1.15,2013-06-03 09:30:00,
2013-06-03 05:36:00,62.7,62.4,29.81,NW,310,0.0,0.0,99,0.00,,,0.00,Wunderground v.1.15,2013-06-03 09:36:00,
2013-06-03 05:41:00,62.5,62.2,29.81,NW,310,0.0,0.0,99,0.00,,,0.00,Wunderground v.1.15,2013-06-03 09:41:00,
2013-06-03 05:47:00,62.4,62.1,29.80,NW,310,0.0,0.0,99,0.00,,,0.00,Wunderground v.1.15,2013-06-03 09:47:00,
2013-06-03 05:53:00,62.2,61.9,29.80,NW,311,0.0,0.0,99,0.00,,,0.00,Wunderground v.1.15,2013-06-03 09:53:00,
2013-06-03 05:58:00,62.0,61.7,29.80,NW,311,0.0,0.0,99,0.00,,,0.00,Wunderground v.1.15,2013-06-03 09:58:00,
2013-06-03 06:04:00,61.9,61.6,29.81,NW,311,0.0,0.0,99,0.00,,,0.00,Wunderground v.1.15,2013-06-03 10:04:00,
2013-06-03 06:09:00,61.9,61.6,29.81,NW,311,0.0,0.0,99,0.00,,,0.00,Wunderground v.1.15,2013-06-03 10:09:00,
2013-06-03 06:14:00,61.9,61.6,29.81,NW,311,0.0,0.0,99,0.00,,,0.00,Wunderground v.1.15,2013-06-03 10:14:00,
2013-06-03 06:19:00,61.9,61.6,29.81,NW,311,0.0,0.0,99,0.00,,,0.00,Wunderground v.1.15,2013-06-03 10:19:00,
2013-06-03 06:24:00,61.9,61.6,29.81,NW,311,0.0,0.0,99,0.00,,,0.00,Wunderground v.1.15,2013-06-03 10:24:00,
2013-06-03 06:29:00,62.0,61.7,29.81,NW,311,0.0,0.0,99,0.00,,,0.00,Wunderground v.1.15,2013-06-03 10:29:00,
2013-06-03 06:35:00,62.1,61.8,29.82,NW,311,0.0,0.0,99,0.00,,,0.00,Wunderground v.1.15,2013-06-03 10:35:00,
2013-06-03 06:40:00,62.2,61.9,29.82,NW,311,0.0,0.0,99,0.00,,,0.00,Wunderground v.1.15,2013-06-03 10:40:00,
2013-06-03 06:45:00,62.3,62.0,29.82,NW,310,0.0,0.0,99,0.00,,,0.00,Wunderground v.1.15,2013-06-03 10:45:00,
2013-06-03 06:51:00,62.3,62.0,29.82,NW,310,0.0,0.0,99,0.00,,,0.00,Wunderground v.1.15,2013-06-03 10:51:00,
2013-06-03 06:56:00,62.5,62.2,29.82,NW,311,0.0,0.0,99,0.00,,,0.00,Wunderground v.1.15,2013-06-03 10:56:00,
2013-06-03 07:02:00,62.5,62.2,29.83,NW,311,0.0,0.0,99,0.00,,,0.00,Wunderground v.1.15,2013-06-03 11:02:00,
2013-06-03 07:08:00,62.7,62.4,29.83,NW,311,0.0,0.0,99,0.00,,,0.00,Wunderground v.1.15,2013-06-03 11:08:00,
2013-06-03 07:13:00,62.7,62.4,29.83,NW,310,0.0,0.0,99,0.00,,,0.00,Wunderground v.1.15,2013-06-03 11:13:00,
2013-06-03 07:19:00,62.8,62.5,29.83,NW,311,0.0,0.0,99,0.00,,,0.00,Wunderground v.1.15,2013-06-03 11:19:00,
2013-06-03 07:24:00,62.9,62.6,29.83,NW,310,0.0,0.0,99,0.00,,,0.00,Wunderground v.1.15,2013-06-03 11:24:00,
2013-06-03 07:30:00,63.0,62.7,29.83,NW,311,0.0,0.0,99,0.00,,,0.00,Wunderground v.1.15,2013-06-03 11:30:00,
2013-06-03 07:36:00,63.1,62.8,29.83,NW,311,0.0,0.0,99,0.00,,,0.00,Wunderground v.1.15,2013-06-03 11:36:00,
2013-06-03 07:41:00,63.2,62.9,29.83,NW,310,0.0,0.0,99,0.00,,,0.00,Wunderground v.1.15,2013-06-03 11:41:00,
2013-06-03 07:47:00,63.3,63.0,29.84,NW,310,0.0,0.0,99,0.00,,,0.00,Wunderground v.1.15,2013-06-03 11:47:00,
2013-06-03 07:52:00,63.3,63.0,29.84,NW,311,0.0,0.0,99,0.00,,,0.00,Wunderground v.1.15,2013-06-03 11:52:00,
2013-06-03 07:57:00,63.3,63.0,29.84,NW,311,0.0,0.0,99,0.00,,,0.00,Wunderground v.1.15,2013-06-03 11:57:00,
2013-06-03 08:03:00,63.4,63.1,29.84,NW,310,0.0,0.0,99,0.00,,,0.00,Wunderground v.1.15,2013-06-03 12:03:00,
2013-06-03 08:08:00,63.5,63.2,29.84,NW,311,0.0,0.0,99,0.00,,,0.00,Wunderground v.1.15,2013-06-03 12:08:00,
2013-06-03 08:14:00,63.5,63.2,29.84,NW,310,0.0,0.0,99,0.00,,,0.00,Wunderground v.1.15,2013-06-03 12:14:00,
2013-06-03 08:20:00,63.6,63.3,29.84,NW,310,0.0,0.0,99,0.00,,,0.00,Wunderground v.1.15,2013-06-03 12:20:00,
2013-06-03 08:27:00,63.9,63.6,29.84,NW,310,0.0,0.0,99,0.00,,,0.00,Wunderground v.1.15,2013-06-03 12:27:00,
2013-06-03 08:32:00,64.0,63.7,29.84,NW,310,0.0,0.0,99,0.00,,,0.00,Wunderground v.1.15,2013-06-03 12:32:00,
2013-06-03 08:37:00,64.0,63.7,29.84,NW,310,0.0,0.0,99,0.00,,,0.00,Wunderground v.1.15,2013-06-03 12:37:00,
2013-06-03 08:43:00,64.1,63.8,29.84,NW,311,0.0,0.0,99,0.00,,,0.00,Wunderground v.1.15,2013-06-03 12:43:00,
2013-06-03 08:49:00,64.3,64.0,29.85,NW,310,0.0,0.0,99,0.00,,,0.00,Wunderground v.1.15,2013-06-03 12:49:00,
2013-06-03 08:54:00,64.3,64.0,29.85,NW,311,0.0,0.0,99,0.00,,,0.00,Wunderground v.1.15,2013-06-03 12:54:00,
2013-06-03 09:00:00,64.2,63.9,29.85,NW,310,0.0,0.0,99,0.00,,,0.00,Wunderground v.1.15,2013-06-03 13:00:00,
2013-06-03 09:07:00,64.3,64.0,29.85,NW,311,0.0,0.0,99,0.00,,,0.00,Wunderground v.1.15,2013-06-03 13:07:00,
2013-06-03 09:12:00,64.3,64.0,29.85,NW,311,0.0,0.0,99,0.00,,,0.00,Wunderground v.1.15,2013-06-03 13:12:00,
2013-06-03 09:17:00,64.4,64.1,29.85,NW,311,0.0,0.0,99,0.00,,,0.00,Wunderground v.1.15,2013-06-03 13:17:00,
2013-06-03 09:22:00,64.5,64.2,29.85,NW,311,0.0,0.0,99,0.00,,,0.00,Wunderground v.1.15,2013-06-03 13:22:00,
2013-06-03 09:28:00,64.7,64.4,29.85,NW,311,0.0,0.0,99,0.00,,,0.00,Wunderground v.1.15,2013-06-03 13:28:00,
2013-06-03 09:33:00,64.8,64.5,29.85,NW,317,0.0,0.0,99,0.00,,,0.00,Wunderground v.1.15,2013-06-03 13:33:00,
2013-06-03 09:39:00,64.8,64.5,29.85,NW,317,0.0,1.0,99,0.00,,,0.00,Wunderground v.1.15,2013-06-03 13:39:00,
2013-06-03 09:44:00,65.1,64.5,29.85,NW,317,0.0,0.0,98,0.00,,,0.00,Wunderground v.1.15,2013-06-03 13:44:00,
2013-06-03 09:50:00,65.8,65.2,29.85,NW,317,0.0,0.0,98,0.00,,,0.00,Wunderground v.1.15,2013-06-03 13:50:00,
2013-06-03 09:56:00,66.2,65.3,29.85,NW,317,0.0,0.0,97,0.00,,,0.00,Wunderground v.1.15,2013-06-03 13:56:00,
2013-06-03 10:01:00,66.3,65.4,29.85,NW,317,0.0,0.0,97,0.00,,,0.00,Wunderground v.1.15,2013-06-03 14:01:00,
2013-06-03 10:06:00,66.6,65.7,29.85,NW,317,0.0,0.0,97,0.00,,,0.00,Wunderground v.1.15,2013-06-03 14:06:00,
2013-06-03 10:12:00,66.8,65.9,29.85,NW,317,0.0,0.0,97,0.00,,,0.00,Wunderground v.1.15,2013-06-03 14:12:00,
2013-06-03 10:17:00,67.1,66.2,29.85,NW,317,0.0,0.0,97,0.00,,,0.00,Wunderground v.1.15,2013-06-03 14:17:00,
2013-06-03 10:22:00,67.4,65.6,29.85,NW,317,0.0,0.0,94,0.00,,,0.00,Wunderground v.1.15,2013-06-03 14:22:00,
2013-06-03 10:28:00,68.2,65.8,29.85,NW,317,0.0,0.0,92,0.00,,,0.00,Wunderground v.1.15,2013-06-03 14:28:00,
2013-06-03 10:34:00,69.7,67.3,29.85,NW,317,0.0,0.0,92,0.00,,,0.00,Wunderground v.1.15,2013-06-03 14:34:00,
2013-06-03 10:40:00,70.4,67.0,29.85,NW,317,0.0,0.0,89,0.00,,,0.00,Wunderground v.1.15,2013-06-03 14:40:00,
2013-06-03 10:45:00,70.3,66.6,29.85,NW,317,0.0,0.0,88,0.00,,,0.00,Wunderground v.1.15,2013-06-03 14:45:00,
2013-06-03 10:51:00,70.4,67.3,29.85,NW,317,0.0,0.0,90,0.00,,,0.00,Wunderground v.1.15,2013-06-03 14:51:00,
2013-06-03 10:57:00,70.9,66.8,29.85,NW,317,0.0,0.0,87,0.00,,,0.00,Wunderground v.1.15,2013-06-03 14:57:00,
2013-06-03 11:03:00,70.7,66.3,29.85,NW,317,0.0,0.0,86,0.00,,,0.00,Wunderground v.1.15,2013-06-03 15:03:00,
2013-06-03 11:08:00,70.6,66.5,29.85,NW,317,0.0,0.0,87,0.00,,,0.00,Wunderground v.1.15,2013-06-03 15:08:00,
2013-06-03 11:14:00,70.4,66.7,29.85,NW,317,0.0,0.0,88,0.00,,,0.00,Wunderground v.1.15,2013-06-03 15:14:00,
2013-06-03 11:20:00,70.5,67.4,29.85,NW,317,0.0,0.0,90,0.00,,,0.00,Wunderground v.1.15,2013-06-03 15:20:00,
2013-06-03 11:25:00,71.3,67.2,29.85,NW,317,0.0,0.0,87,0.00,,,0.00,Wunderground v.1.15,2013-06-03 15:25:00,
2013-06-03 11:30:00,72.1,68.7,29.85,WNW,289,0.0,0.0,89,0.00,,,0.00,Wunderground v.1.15,2013-06-03 15:30:00,
2013-06-03 11:35:00,72.5,67.0,29.85,WNW,288,0.0,0.0,83,0.00,,,0.00,Wunderground v.1.15,2013-06-03 15:35:00,
2013-06-03 11:41:00,72.4,66.9,29.85,WNW,289,0.0,0.0,83,0.00,,,0.00,Wunderground v.1.15,2013-06-03 15:41:00,
2013-06-03 11:47:00,72.0,65.1,29.85,WNW,289,0.0,0.0,79,0.00,,,0.00,Wunderground v.1.15,2013-06-03 15:47:00,
2013-06-03 11:52:00,71.7,66.9,29.85,WNW,288,0.0,0.0,85,0.00,,,0.00,Wunderground v.1.15,2013-06-03 15:52:00,
2013-06-03 11:57:00,72.0,65.5,29.85,WNW,288,0.0,1.0,80,0.00,,,0.00,Wunderground v.1.15,2013-06-03 15:57:00,
2013-06-03 12:03:00,72.7,67.9,29.85,WNW,288,0.0,0.0,85,0.00,,,0.00,Wunderground v.1.15,2013-06-03 16:03:00,
2013-06-03 12:08:00,72.9,68.5,29.85,WNW,288,0.0,1.0,86,0.00,,,0.00,Wunderground v.1.15,2013-06-03 16:08:00,
2013-06-03 12:13:00,73.1,67.3,29.85,WSW,244,0.0,0.0,82,0.00,,,0.00,Wunderground v.1.15,2013-06-03 16:13:00,
2013-06-03 12:18:00,73.6,68.5,29.85,WSW,244,0.0,0.0,84,0.00,,,0.00,Wunderground v.1.15,2013-06-03 16:18:00,
2013-06-03 12:24:00,73.8,67.2,29.85,WSW,244,0.0,0.0,80,0.00,,,0.00,Wunderground v.1.15,2013-06-03 16:24:00,
2013-06-03 12:29:00,74.5,67.6,29.85,NE,40,0.0,2.0,79,0.00,,,0.00,Wunderground v.1.15,2013-06-03 16:29:00,
2013-06-03 12:35:00,74.5,67.6,29.85,NE,39,1.0,3.0,79,0.00,,,0.00,Wunderground v.1.15,2013-06-03 16:35:00,
2013-06-03 12:40:00,74.3,67.4,29.85,NE,38,1.0,1.0,79,0.00,,,0.00,Wunderground v.1.15,2013-06-03 16:40:00,
2013-06-03 12:46:00,74.3,67.4,29.85,NE,39,0.0,1.0,79,0.00,,,0.00,Wunderground v.1.15,2013-06-03 16:46:00,
2013-06-03 12:52:00,74.0,67.8,29.85,NE,39,0.0,0.0,81,0.00,,,0.00,Wunderground v.1.15,2013-06-03 16:52:00,
2013-06-03 12:57:00,73.8,68.3,29.85,NE,38,0.0,0.0,83,0.00,,,0.00,Wunderground v.1.15,2013-06-03 16:57:00,
2013-06-03 13:03:00,73.0,66.5,29.83,NE,38,0.0,0.0,80,0.00,,,0.00,Wunderground v.1.15,2013-06-03 17:03:00,
2013-06-03 13:09:00,73.2,66.7,29.83,NE,39,0.0,0.0,80,0.00,,,0.00,Wunderground v.1.15,2013-06-03 17:09:00,
2013-06-03 13:15:00,73.5,68.4,29.83,NE,39,0.0,0.0,84,0.00,,,0.00,Wunderground v.1.15,2013-06-03 17:15:00,
2013-06-03 13:21:00,73.9,68.8,29.83,NE,39,0.0,0.0,84,0.00,,,0.00,Wunderground v.1.15,2013-06-03 17:21:00,
2013-06-03 13:27:00,73.8,67.2,29.83,West,265,0.0,0.0,80,0.00,,,0.00,Wunderground v.1.15,2013-06-03 17:27:00,
2013-06-03 13:32:00,74.1,67.5,29.83,West,262,0.0,0.0,80,0.00,,,0.00,Wunderground v.1.15,2013-06-03 17:32:00,
2013-06-03 13:38:00,75.1,67.0,29.83,East,83,1.0,2.0,76,0.00,,,0.00,Wunderground v.1.15,2013-06-03 17:38:00,
2013-06-03 13:44:00,75.7,67.2,29.83,East,83,0.0,1.0,75,0.00,,,0.00,Wunderground v.1.15,2013-06-03 17:44:00,
2013-06-03 13:50:00,75.4,68.1,29.83,East,82,0.0,1.0,78,0.00,,,0.00,Wunderground v.1.15,2013-06-03 17:50:00,
2013-06-03 13:56:00,74.9,67.2,29.83,East,82,0.0,1.0,77,0.00,,,0.00,Wunderground v.1.15,2013-06-03 17:56:00,
2013-06-03 14:02:00,74.9,66.1,29.82,ESE,105,0.0,1.0,74,0.00,,,0.00,Wunderground v.1.15,2013-06-03 18:02:00,
2013-06-03 14:07:00,75.1,68.5,29.82,ESE,105,0.0,1.0,80,0.00,,,0.00,Wunderground v.1.15,2013-06-03 18:07:00,
2013-06-03 14:13:00,75.4,68.1,29.82,NE,41,0.0,4.0,78,0.00,,,0.00,Wunderground v.1.15,2013-06-03 18:13:00,
2013-06-03 14:18:00,75.2,65.6,29.82,NE,41,0.0,4.0,72,0.00,,,0.00,Wunderground v.1.15,2013-06-03 18:18:00,
2013-06-03 14:23:00,74.8,66.0,29.82,NE,41,0.0,1.0,74,0.00,,,0.00,Wunderground v.1.15,2013-06-03 18:23:00,
2013-06-03 14:29:00,74.5,65.7,29.82,NE,40,0.0,2.0,74,0.00,,,0.00,Wunderground v.1.15,2013-06-03 18:29:00,
2013-06-03 14:34:00,74.3,65.5,29.81,NE,36,1.0,2.0,74,0.00,,,0.00,Wunderground v.1.15,2013-06-03 18:34:00,
2013-06-03 14:40:00,73.7,65.7,29.81,North,355,0.0,5.0,76,0.00,,,0.00,Wunderground v.1.15,2013-06-03 18:40:00,
2013-06-03 14:46:00,72.7,64.3,29.81,East,79,1.0,5.0,75,0.00,,,0.00,Wunderground v.1.15,2013-06-03 18:46:00,
2013-06-03 14:51:00,72.4,66.6,29.82,South,169,1.0,1.0,82,0.00,,,0.00,Wunderground v.1.15,2013-06-03 18:51:00,
2013-06-03 14:57:00,71.8,66.7,29.82,South,169,0.0,1.0,84,0.00,,,0.00,Wunderground v.1.15,2013-06-03 18:57:00,
2013-06-03 15:03:00,71.6,64.4,29.81,SE,130,0.0,2.0,78,0.00,,,0.00,Wunderground v.1.15,2013-06-03 19:03:00,
2013-06-03 15:08:00,71.9,64.3,29.81,WNW,303,0.0,2.0,77,0.00,,,0.00,Wunderground v.1.15,2013-06-03 19:08:00,
2013-06-03 15:13:00,72.0,65.1,29.81,NW,310,0.0,2.0,79,0.00,,,0.00,Wunderground v.1.15,2013-06-03 19:13:00,
2013-06-03 15:18:00,71.9,64.7,29.81,NNW,348,0.0,2.0,78,0.00,,,0.00,Wunderground v.1.15,2013-06-03 19:18:00,
2013-06-03 15:23:00,72.0,65.1,29.81,North,360,0.0,0.0,79,0.00,,,0.00,Wunderground v.1.15,2013-06-03 19:23:00,
2013-06-03 15:28:00,71.8,67.0,29.81,North,360,0.0,0.0,85,0.00,,,0.00,Wunderground v.1.15,2013-06-03 19:28:00,
2013-06-03 15:34:00,71.6,66.5,29.80,North,360,0.0,0.0,84,0.00,,,0.00,Wunderground v.1.15,2013-06-03 19:34:00,
2013-06-03 15:39:00,71.3,66.9,29.80,North,360,0.0,0.0,86,0.00,,,0.00,Wunderground v.1.15,2013-06-03 19:39:00,
2013-06-03 15:44:00,71.4,67.3,29.80,North,360,0.0,0.0,87,0.00,,,0.00,Wunderground v.1.15,2013-06-03 19:44:00,
2013-06-03 15:50:00,72.2,67.1,29.80,North,360,0.0,0.0,84,0.00,,,0.00,Wunderground v.1.15,2013-06-03 19:50:00,
2013-06-03 15:55:00,73.6,65.2,29.80,North,355,0.0,0.0,75,0.00,,,0.00,Wunderground v.1.15,2013-06-03 19:55:00,
2013-06-03 16:02:00,75.0,64.5,29.79,North,355,0.0,1.0,70,0.00,,,0.00,Wunderground v.1.15,2013-06-03 20:02:00,
2013-06-03 16:08:00,75.6,65.9,29.79,NNW,348,0.0,1.0,72,0.00,,,0.00,Wunderground v.1.15,2013-06-03 20:08:00,
2013-06-03 16:13:00,76.2,65.3,29.79,East,98,0.0,2.0,69,0.00,,,0.00,Wunderground v.1.15,2013-06-03 20:13:00,
2013-06-03 16:19:00,76.4,64.6,29.79,SW,222,0.0,2.0,67,0.00,,,0.00,Wunderground v.1.15,2013-06-03 20:19:00,
2013-06-03 16:24:00,76.0,63.8,29.79,NW,304,1.0,4.0,66,0.00,,,0.00,Wunderground v.1.15,2013-06-03 20:24:00,
2013-06-03 16:30:00,74.9,64.0,29.79,WNW,284,1.0,1.0,69,0.00,,,0.00,Wunderground v.1.15,2013-06-03 20:30:00,
2013-06-03 16:36:00,74.5,68.3,29.79,WNW,284,0.0,1.0,81,0.00,,,0.00,Wunderground v.1.15,2013-06-03 20:36:00,
2013-06-03 16:41:00,75.1,68.1,29.79,WNW,284,0.0,0.0,79,0.00,,,0.00,Wunderground v.1.15,2013-06-03 20:41:00,
2013-06-03 16:47:00,76.0,66.7,29.79,WNW,283,0.0,0.0,73,0.00,,,0.00,Wunderground v.1.15,2013-06-03 20:47:00,
2013-06-03 16:52:00,76.9,66.4,29.79,South,170,0.0,1.0,70,0.00,,,0.00,Wunderground v.1.15,2013-06-03 20:52:00,
2013-06-03 16:57:00,77.7,65.9,29.79,East,86,0.0,1.0,67,0.00,,,0.00,Wunderground v.1.15,2013-06-03 20:57:00,
2013-06-03 17:03:00,78.3,64.2,29.78,East,86,0.0,1.0,62,0.00,,,0.00,Wunderground v.1.15,2013-06-03 21:03:00,
2013-06-03 17:09:00,78.4,63.4,29.78,East,86,0.0,1.0,60,0.00,,,0.00,Wunderground v.1.15,2013-06-03 21:09:00,
2013-06-03 17:15:00,78.2,65.0,29.78,ENE,61,0.0,3.0,64,0.00,,,0.00,Wunderground v.1.15,2013-06-03 21:15:00,
2013-06-03 17:20:00,77.3,63.7,29.78,ENE,67,1.0,1.0,63,0.00,,,0.00,Wunderground v.1.15,2013-06-03 21:20:00,
2013-06-03 17:26:00,77.1,63.1,29.78,NNW,331,1.0,3.0,62,0.00,,,0.00,Wunderground v.1.15,2013-06-03 21:26:00,
2013-06-03 17:32:00,77.1,67.0,29.78,NNW,331,0.0,0.0,71,0.00,,,0.00,Wunderground v.1.15,2013-06-03 21:32:00,
2013-06-03 17:38:00,76.5,67.6,29.78,NNW,331,0.0,0.0,74,0.00,,,0.00,Wunderground v.1.15,2013-06-03 21:38:00,
2013-06-03 17:43:00,75.8,65.3,29.78,NNW,331,0.0,0.0,70,0.00,,,0.00,Wunderground v.1.15,2013-06-03 21:43:00,
2013-06-03 17:49:00,75.6,65.1,29.78,North,5,0.0,1.0,70,0.00,,,0.00,Wunderground v.1.15,2013-06-03 21:49:00,
2013-06-03 17:55:00,75.4,63.2,29.78,NW,319,0.0,1.0,66,0.00,,,0.00,Wunderground v.1.15,2013-06-03 21:55:00,
2013-06-03 18:01:00,75.0,66.9,29.78,WSW,247,0.0,0.0,76,0.00,,,0.00,Wunderground v.1.15,2013-06-03 22:01:00,
2013-06-03 18:07:00,74.6,68.0,29.78,WSW,247,0.0,0.0,80,0.00,,,0.00,Wunderground v.1.15,2013-06-03 22:07:00,
2013-06-03 18:12:00,73.8,65.4,29.78,WSW,246,0.0,0.0,75,0.00,,,0.00,Wunderground v.1.15,2013-06-03 22:12:00,
2013-06-03 18:17:00,73.6,67.0,29.78,WSW,247,0.0,0.0,80,0.00,,,0.00,Wunderground v.1.15,2013-06-03 22:17:00,
2013-06-03 18:23:00,73.5,66.2,29.78,WSW,247,0.0,1.0,78,0.00,,,0.00,Wunderground v.1.15,2013-06-03 22:23:00,
2013-06-03 18:28:00,73.4,63.0,29.78,NNE,31,1.0,1.0,70,0.00,,,0.00,Wunderground v.1.15,2013-06-03 22:28:00,
2013-06-03 18:33:00,73.5,67.3,29.79,NNE,31,1.0,1.0,81,0.00,,,0.00,Wunderground v.1.15,2013-06-03 22:33:00,
2013-06-03 18:39:00,72.8,67.0,29.79,NNE,26,0.0,2.0,82,0.00,,,0.00,Wunderground v.1.15,2013-06-03 22:39:00,
2013-06-03 18:44:00,71.7,65.9,29.79,West,277,1.0,2.0,82,0.00,,,0.00,Wunderground v.1.15,2013-06-03 22:44:00,
2013-06-03 18:50:00,71.1,66.7,29.79,West,277,1.0,1.0,86,0.00,,,0.00,Wunderground v.1.15,2013-06-03 22:50:00,
2013-06-03 18:56:00,70.7,65.6,29.79,West,277,1.0,2.0,84,0.00,,,0.00,Wunderground v.1.15,2013-06-03 22:56:00,
2013-06-03 19:02:00,70.4,65.3,29.79,SSW,199,1.0,2.0,84,0.00,,,0.00,Wunderground v.1.15,2013-06-03 23:02:00,
2013-06-03 19:07:00,70.6,65.9,29.79,SSW,198,1.0,2.0,85,0.00,,,0.00,Wunderground v.1.15,2013-06-03 23:07:00,
2013-06-03 19:13:00,70.7,63.1,29.79,SSW,198,1.0,1.0,77,0.00,,,0.00,Wunderground v.1.15,2013-06-03 23:13:00,
2013-06-03 19:19:00,71.0,65.6,29.80,SSW,198,0.0,1.0,83,0.00,,,0.00,Wunderground v.1.15,2013-06-03 23:19:00,
2013-06-03 19:24:00,71.3,65.2,29.80,SSW,198,0.0,0.0,81,0.00,,,0.00,Wunderground v.1.15,2013-06-03 23:24:00,
2013-06-03 19:29:00,71.1,64.3,29.80,SSW,198,0.0,0.0,79,0.00,,,0.00,Wunderground v.1.15,2013-06-03 23:29:00,
2013-06-03 19:35:00,71.0,65.6,29.80,SSW,198,0.0,1.0,83,0.00,,,0.00,Wunderground v.1.15,2013-06-03 23:35:00,
2013-06-03 19:40:00,70.8,65.7,29.80,SSW,198,0.0,0.0,84,0.00,,,0.00,Wunderground v.1.15,2013-06-03 23:40:00,
2013-06-03 19:46:00,70.4,65.3,29.80,SSW,198,0.0,0.0,84,0.00,,,0.00,Wunderground v.1.15,2013-06-03 23:46:00,
2013-06-03 19:52:00,70.2,65.5,29.81,SSW,198,0.0,0.0,85,0.00,,,0.00,Wunderground v.1.15,2013-06-03 23:52:00,
2013-06-03 19:58:00,70.1,65.4,29.81,SSW,198,0.0,1.0,85,0.00,,,0.00,Wunderground v.1.15,2013-06-03 23:58:00,
2013-06-03 20:03:00,70.1,66.0,29.82,SSW,198,0.0,0.0,87,0.00,,,0.00,Wunderground v.1.15,2013-06-04 00:03:00,
2013-06-03 20:09:00,70.1,66.0,29.82,SSW,198,0.0,1.0,87,0.00,,,0.00,Wunderground v.1.15,2013-06-04 00:09:00,
2013-06-03 20:14:00,70.1,65.4,29.82,SSW,198,0.0,0.0,85,0.00,,,0.00,Wunderground v.1.15,2013-06-04 00:14:00,
2013-06-03 20:20:00,69.9,64.8,29.82,SSW,198,0.0,0.0,84,0.00,,,0.00,Wunderground v.1.15,2013-06-04 00:20:00,
2013-06-03 20:25:00,70.0,65.3,29.82,SSW,198,0.0,1.0,85,0.00,,,0.00,Wunderground v.1.15,2013-06-04 00:25:00,
2013-06-03 20:31:00,69.9,65.5,29.82,SSW,198,0.0,0.0,86,0.00,,,0.00,Wunderground v.1.15,2013-06-04 00:31:00,
2013-06-03 20:37:00,69.6,65.6,29.83,SSW,198,0.0,0.0,87,0.00,,,0.00,Wunderground v.1.15,2013-06-04 00:37:00,
2013-06-03 20:43:00,69.2,64.8,29.83,SSW,198,0.0,0.0,86,0.00,,,0.00,Wunderground v.1.15,2013-06-04 00:43:00,
2013-06-03 20:48:00,69.0,64.6,29.84,SSW,198,0.0,1.0,86,0.00,,,0.00,Wunderground v.1.15,2013-06-04 00:48:00,
2013-06-03 20:54:00,68.8,64.8,29.84,SSW,198,0.0,0.0,87,0.00,,,0.00,Wunderground v.1.15,2013-06-04 00:54:00,
2013-06-03 21:00:00,68.5,64.1,29.84,SSW,198,0.0,0.0,86,0.00,,,0.00,Wunderground v.1.15,2013-06-04 01:00:00,
2013-06-03 21:07:00,68.3,64.9,29.84,SSW,198,0.0,0.0,89,0.00,,,0.00,Wunderground v.1.15,2013-06-04 01:07:00,
2013-06-03 21:12:00,68.1,64.7,29.84,SSW,198,0.0,0.0,89,0.00,,,0.00,Wunderground v.1.15,2013-06-04 01:12:00,
2013-06-03 21:17:00,67.7,64.3,29.84,SSW,198,0.0,0.0,89,0.00,,,0.00,Wunderground v.1.15,2013-06-04 01:17:00,
2013-06-03 21:23:00,67.4,64.0,29.84,SSW,198,0.0,0.0,89,0.00,,,0.00,Wunderground v.1.15,2013-06-04 01:23:00,
2013-06-03 21:29:00,67.0,64.0,29.84,SSW,198,0.0,0.0,90,0.00,,,0.00,Wunderground v.1.15,2013-06-04 01:29:00,
2013-06-03 21:35:00,66.6,62.9,29.85,SSW,198,0.0,0.0,88,0.00,,,0.00,Wunderground v.1.15,2013-06-04 01:35:00,
2013-06-03 21:41:00,66.3,62.6,29.85,SSW,198,0.0,0.0,88,0.00,,,0.00,Wunderground v.1.15,2013-06-04 01:41:00,
2013-06-03 21:47:00,66.2,63.2,29.86,SSW,198,0.0,0.0,90,0.00,,,0.00,Wunderground v.1.15,2013-06-04 01:47:00,
2013-06-03 21:52:00,66.1,63.1,29.86,SSW,198,0.0,0.0,90,0.00,,,0.00,Wunderground v.1.15,2013-06-04 01:52:00,
2013-06-03 21:58:00,66.1,63.1,29.86,SSW,198,0.0,0.0,90,0.00,,,0.00,Wunderground v.1.15,2013-06-04 01:58:00,
2013-06-03 22:03:00,66.1,63.1,29.86,SSW,198,0.0,0.0,90,0.00,,,0.00,Wunderground v.1.15,2013-06-04 02:03:00,
2013-06-03 22:09:00,66.1,62.8,29.86,SSW,198,0.0,0.0,89,0.00,,,0.00,Wunderground v.1.15,2013-06-04 02:09:00,
2013-06-03 22:14:00,66.1,63.1,29.86,SSW,198,0.0,0.0,90,0.00,,,0.00,Wunderground v.1.15,2013-06-04 02:14:00,
2013-06-03 22:19:00,66.0,62.7,29.86,SSW,198,0.0,0.0,89,0.00,,,0.00,Wunderground v.1.15,2013-06-04 02:19:00,
2013-06-03 22:25:00,65.8,62.8,29.86,SSW,198,0.0,0.0,90,0.00,,,0.00,Wunderground v.1.15,2013-06-04 02:25:00,
2013-06-03 22:31:00,65.5,61.9,29.86,SSW,198,0.0,0.0,88,0.00,,,0.00,Wunderground v.1.15,2013-06-04 02:31:00,
2013-06-03 22:37:00,65.4,62.1,29.88,SSW,198,0.0,0.0,89,0.00,,,0.00,Wunderground v.1.15,2013-06-04 02:37:00,
2013-06-03 22:42:00,65.4,62.1,29.88,SSW,198,0.0,0.0,89,0.00,,,0.00,Wunderground v.1.15,2013-06-04 02:42:00,
2013-06-03 22:48:00,65.5,62.5,29.88,SSW,198,0.0,0.0,90,0.00,,,0.00,Wunderground v.1.15,2013-06-04 02:48:00,
2013-06-03 22:53:00,65.6,62.9,29.88,SSW,198,0.0,0.0,91,0.00,,,0.00,Wunderground v.1.15,2013-06-04 02:53:00,
2013-06-03 22:58:00,65.6,62.9,29.88,SSW,198,0.0,0.0,91,0.00,,,0.00,Wunderground v.1.15,2013-06-04 02:58:00,
2013-06-03 23:04:00,65.5,62.5,29.89,SSW,198,0.0,0.0,90,0.00,,,0.00,Wunderground v.1.15,2013-06-04 03:04:00,
2013-06-03 23:10:00,65.5,62.8,29.89,SSW,198,0.0,0.0,91,0.00,,,0.00,Wunderground v.1.15,2013-06-04 03:10:00,
2013-06-03 23:16:00,65.6,63.2,29.89,SSW,198,0.0,0.0,92,0.00,,,0.00,Wunderground v.1.15,2013-06-04 03:16:00,
2013-06-03 23:22:00,65.6,62.9,29.89,SSW,198,0.0,0.0,91,0.00,,,0.00,Wunderground v.1.15,2013-06-04 03:22:00,
2013-06-03 23:28:00,65.5,62.8,29.89,SSW,198,0.0,0.0,91,0.00,,,0.00,Wunderground v.1.15,2013-06-04 03:28:00,
2013-06-03 23:34:00,65.4,62.4,29.89,SSW,198,0.0,0.0,90,0.00,,,0.00,Wunderground v.1.15,2013-06-04 03:34:00,
2013-06-03 23:40:00,65.5,62.8,29.89,SSW,198,0.0,0.0,91,0.00,,,0.00,Wunderground v.1.15,2013-06-04 03:40:00,
2013-06-03 23:45:00,65.5,62.8,29.89,SSW,198,0.0,0.0,91,0.00,,,0.00,Wunderground v.1.15,2013-06-04 03:45:00,
2013-06-03 23:50:00,65.6,62.9,29.89,SSW,198,0.0,0.0,91,0.00,,,0.00,Wunderground v.1.15,2013-06-04 03:50:00,
2013-06-03 23:56:00,65.6,62.9,29.89,SSW,198,0.0,0.0,91,0.00,,,0.00,Wunderground v.1.15,2013-06-04 03:56:00,